EW0734 Weather Reports


time (UTC)temp
C
wind
direction
speed
KPH
gust
KPH
rain 1hr
cm
rain 24hr
cm
rain mn
cm
humidity
%
barometer
mb
20260509031025 12 0.0 0.0 0.00 0.00 0.00 63 1011.6
20260509030026 12 0.0 0.0 0.00 0.00 0.00 63 1011.5
20260509025025 12 0.0 0.0 0.00 0.00 0.00 62 1011.6
20260509024026 12 0.0 0.0 0.00 0.00 0.00 62 1011.7
20260509023025 13 0.0 0.0 0.00 0.00 0.00 61 1011.6
20260509022025 13 0.0 0.0 0.00 0.00 0.00 60 1011.5
20260509021026 13 0.0 0.0 0.00 0.00 0.00 60 1011.4
20260509020025 13 0.0 0.0 0.00 0.00 0.00 59 1011.4
20260509015025 13 0.0 0.0 0.00 0.00 0.00 57 1011.3
20260509014026 13 0.0 0.0 0.00 0.00 0.00 57 1011.3
20260509013046 14 0.0 0.0 0.00 0.00 0.00 55 1011.2
20260509012026 15 0.0 0.0 0.00 0.00 0.00 54 1011.2
20260509011025 15 0.0 0.0 0.00 0.00 0.00 52 1011.1
20260509010025 15 0.0 1.6 0.00 0.00 0.00 51 1010.9
20260509005045 16 0.0 0.0 0.00 0.00 0.00 49 1010.9
20260509004026 17 0.0 0.0 0.00 0.00 0.00 49 1011.0
20260509003026 17 0.0 0.0 0.00 0.00 0.00 47 1010.9
20260509002025 18 0.0 0.0 0.00 0.00 0.00 45 1010.8
20260509001026 18 0.0 1.6 0.00 0.00 0.00 44 1010.7
20260509000045 18 0.0 1.6 0.00 0.00 0.00 41 1010.6
20260508235025 19 0.0 1.6 0.00 0.00 0.00 41 1010.5
20260508234026 20 0.0 1.6 0.00 0.00 0.00 40 1010.5
20260508233045 20 0.0 3.2 0.00 0.00 0.00 39 1010.4
20260508232045 20 0.0 3.2 0.00 0.00 0.00 38 1010.3
20260508231106 20 68 1.6 9.7 0.00 0.00 0.00 39 1010.2
20260508230026 20 0.0 4.8 0.00 0.00 0.00 38 1010.1
20260508225045 20 0.0 1.6 0.00 0.00 0.00 39 1010.2
20260508224025 20 68 1.6 4.8 0.00 0.00 0.00 38 1010.2
20260508223025 21 0.0 1.6 0.00 0.00 0.00 39 1010.1
20260508222026 21 0.0 6.4 0.00 0.00 0.00 37 1010.3
20260508221025 21 68 1.6 9.7 0.00 0.00 0.00 37 1010.3
20260508220025 21 68 1.6 8.0 0.00 0.00 0.00 35 1010.3
20260508215025 22 68 1.6 8.0 0.00 0.00 0.00 35 1010.3
20260508214025 22 90 1.6 6.4 0.00 0.00 0.00 33 1010.3
20260508213025 22 0.0 3.2 0.00 0.00 0.00 34 1010.4
20260508212045 22 0.0 4.8 0.00 0.00 0.00 35 1010.5
20260508211025 22 68 1.6 6.4 0.00 0.00 0.00 34 1010.5
20260508210026 22 90 1.6 6.4 0.00 0.00 0.00 34 1010.5
20260508205025 22 0.0 1.6 0.00 0.00 0.00 36 1010.5
20260508204025 22 0.0 3.2 0.00 0.00 0.00 36 1010.6
20260508203025 22 90 1.6 4.8 0.00 0.00 0.00 37 1010.6
20260508202025 23 0.0 4.8 0.00 0.00 0.00 32 1010.8
20260508201024 23 0.0 6.4 0.00 0.00 0.00 33 1010.9
20260508200026 22 68 1.6 8.0 0.00 0.00 0.00 34 1011.0
20260508195025 23 90 1.6 8.0 0.00 0.00 0.00 33 1011.3
20260508194024 23 0.0 3.2 0.00 0.00 0.00 34 1011.2
20260508193025 23 68 1.6 11.3 0.00 0.00 0.00 35 1011.3
20260508192025 23 68 1.6 9.7 0.00 0.00 0.00 34 1011.6
20260508191025 22 68 1.6 9.7 0.00 0.00 0.00 35 1011.7
20260508190025 23 0.0 3.2 0.00 0.00 0.00 34 1012.0
20260508185026 23 90 1.6 8.0 0.00 0.00 0.00 37 1012.1
20260508184026 22 0.0 1.6 0.00 0.00 0.00 37 1012.3
20260508183045 23 0.0 1.6 0.00 0.00 0.00 37 1012.3
20260508182025 23 68 1.6 4.8 0.00 0.00 0.00 36 1012.4
20260508181024 22 0.0 1.6 0.00 0.00 0.00 36 1012.6
20260508180025 21 68 1.6 6.4 0.00 0.00 0.00 38 1012.7
20260508175025 22 90 3.2 11.3 0.00 0.00 0.00 36 1012.9
20260508174046 23 0.0 1.6 0.00 0.00 0.00 36 1013.0
20260508173025 23 0.0 1.6 0.00 0.00 0.00 37 1013.1
20260508172025 22 0.0 1.6 0.00 0.00 0.00 36 1013.1
20260508171126 22 0.0 4.8 0.00 0.00 0.00 41 1013.3
20260508170024 22 68 1.6 8.0 0.00 0.00 0.00 41 1013.5
20260508165024 22 0.0 8.0 0.00 0.00 0.00 38 1013.5
20260508164025 21 0.0 6.4 0.00 0.00 0.00 38 1013.8
20260508163045 21 0.0 1.6 0.00 0.00 0.00 39 1013.9
20260508162024 21 0.0 3.2 0.00 0.00 0.00 40 1014.2
20260508161024 21 0.0 3.2 0.00 0.00 0.00 41 1014.2
20260508160025 21 0.0 3.2 0.00 0.00 0.00 40 1014.4
20260508155024 21 0.0 6.4 0.00 0.00 0.00 44 1014.4
20260508154025 20 0.0 3.2 0.00 0.00 0.00 41 1014.4
20260508153025 20 0.0 3.2 0.00 0.00 0.00 40 1014.5
20260508152024 20 0.0 3.2 0.00 0.00 0.00 39 1014.6
20260508151024 20 0.0 3.2 0.00 0.00 0.00 40 1014.7
20260508150024 20 0.0 1.6 0.00 0.00 0.00 40 1014.7
20260508145025 19 0.0 3.2 0.00 0.00 0.00 42 1014.9
20260508144045 20 0.0 1.6 0.00 0.00 0.00 40 1015.0
20260508143044 18 0.0 1.6 0.00 0.00 0.00 44 1015.0
20260508142024 18 0.0 1.6 0.00 0.00 0.00 45 1015.0
20260508141045 17 0.0 3.2 0.00 0.00 0.00 49 1015.1
20260508140024 16 0.0 1.6 0.00 0.00 0.00 54 1015.1
20260508135044 16 0.0 1.6 0.00 0.00 0.00 56 1015.3
20260508134024 15 0.0 0.0 0.00 0.00 0.00 64 1015.3
20260508133024 13 0.0 1.6 0.00 0.00 0.00 72 1015.4
20260508132047 12 0.0 1.6 0.00 0.00 0.00 82 1015.4
20260508131024 10 0.0 1.6 0.00 0.00 0.00 87 1015.3
20260508130026 9 0.0 0.0 0.00 0.00 0.00 33 1015.3
20260508125024 8 0.0 0.0 0.00 0.00 0.00 14 1015.3
20260508124027 8 0.0 0.0 0.00 0.00 0.00 10 1015.4
20260508123046 7 0.0 0.0 0.00 0.00 0.00 12 1015.3
20260508122027 7 0.0 0.0 0.00 0.00 0.00 12 1015.0
20260508121027 6 0.0 0.0 0.00 0.00 0.00 13 1015.0
20260508120026 6 0.0 0.0 0.00 0.00 0.00 14 1015.0
20260508115026 5 0.0 0.0 0.00 0.00 0.00 14 1014.9
20260508114026 5 0.0 0.0 0.00 0.00 0.00 16 1014.8
20260508113026 5 0.0 0.0 0.00 0.00 0.00 17 1014.7
20260508112026 4 0.0 0.0 0.00 0.00 0.00 18 1014.6
20260508111026 4 0.0 0.0 0.00 0.00 0.00 20 1014.4
20260508110522 -17 0.0 0.0 0.00 0.00 0.00
20260508110025 -17 0.0 0.0 0.00 0.00 0.00
20260508105024 -17 0.0 0.0 0.00 0.00 0.00
20260508104545 -17 0.0 0.0 0.00 0.00 0.00
20260508104023 -17 0.0 0.0 0.00 0.00 0.00
20260508103525 -17 0.0 0.0 0.00 0.00 0.00
20260508102525 -17 0.0 0.0 0.00 0.00 0.00
20260508102045 -17 0.0 0.0 0.00 0.00 0.00
20260508101523 -17 0.0 0.0 0.00 0.00 0.00
20260508101025 -17 0.0 0.0 0.00 0.00 0.00
20260508100045 -17 0.0 0.0 0.00 0.00 0.00
20260508095539 -17 0.0 0.0 0.00 0.00 0.00
20260508095019 -17 0.0 0.0 0.00 0.00 0.00
20260508094524 -17 0.0 0.0 0.00 0.00 0.00
20260508093525 -17 0.0 0.0 0.00 0.00 0.00
20260508093100 -17 0.0 0.0 0.00 0.00 0.00
20260508092519 -17 0.0 0.0 0.00 0.00 0.00
20260508092025 -17 0.0 0.0 0.00 0.00 0.00
20260508091025 -17 0.0 0.0 0.00 0.00 0.00
20260508090556 -17 0.0 0.0 0.00 0.00 0.00
20260508090054 -17 0.0 0.0 0.00 0.00 0.00
20260508085025 -17 0.0 0.0 0.00 0.00 0.00
20260508084102 -17 0.0 0.0 0.00 0.00 0.00 27
20260508083539 -17 0.0 0.0 0.00 0.00 0.00 27
20260508083025 6 0.0 0.0 0.00 0.00 0.00 27 1012.7
20260508082026 6 0.0 0.0 0.00 0.00 0.00 22 1012.6
20260508081027 6 0.0 0.0 0.00 0.00 0.00 24 1012.5
20260508080025 6 0.0 0.0 0.00 0.00 0.00 26 1012.5
20260508075025 7 0.0 0.0 0.00 0.00 0.00 25 1012.4
20260508074026 7 0.0 0.0 0.00 0.00 0.00 23 1012.4
20260508073025 7 0.0 0.0 0.00 0.00 0.00 21 1012.3
20260508072026 7 0.0 0.0 0.00 0.00 0.00 19 1012.2
20260508071025 7 0.0 0.0 0.00 0.00 0.00 22 1012.0
20260508070026 7 0.0 0.0 0.00 0.00 0.00 23 1011.8
20260508065025 7 0.0 0.0 0.00 0.00 0.00 24 1011.7
20260508064026 7 0.0 0.0 0.00 0.00 0.00 22 1011.6
20260508063025 7 0.0 0.0 0.00 0.00 0.00 22 1011.4
20260508062025 7 0.0 0.0 0.00 0.00 0.00 23 1011.3
20260508061046 7 0.0 1.6 0.00 0.00 0.00 26 1011.2
20260508060026 7 0.0 0.0 0.00 0.00 0.00 29 1011.1
20260508055025 7 0.0 0.0 0.00 0.00 0.00 36 1011.2
20260508054025 7 0.0 0.0 0.00 0.00 0.00 44 1011.1
20260508053025 7 0.0 0.0 0.00 0.00 0.00 46 1011.1
20260508052026 7 0.0 0.0 0.00 0.00 0.00 46 1011.1
20260508051026 7 0.0 0.0 0.00 0.00 0.00 46 1011.1
20260508050026 7 0.0 0.0 0.00 0.00 0.00 47 1011.0
20260508045046 7 0.0 0.0 0.00 0.00 0.00 47 1010.9
20260508044046 7 0.0 0.0 0.00 0.00 0.00 53 1010.7
20260508043025 7 0.0 0.0 0.00 0.00 0.00 57 1010.7
20260508042025 7 0.0 0.0 0.00 0.00 0.00 59 1010.7
20260508041045 8 0.0 0.0 0.00 0.00 0.00 64 1010.7
20260508040031 8 0.0 0.0 0.00 0.00 0.00 65 1010.6
20260508035026 8 0.0 0.0 0.00 0.00 0.00 72 1010.5
20260508034025 8 0.0 0.0 0.00 0.00 0.00 75 1010.4
20260508033046 8 0.0 0.0 0.00 0.00 0.00 78 1010.4
20260508032046 8 0.0 0.0 0.00 0.00 0.00 80 1010.4